User: anonymous   Login
Location: ???? ?????
(30.0052°N, 31.2891°E)
Time: 13:25:44
(UTC+00:00)
Language:

Cosmos 2228 - Orbit

View from above orbital plane
View from above orbital plane
View from above satellite
View from above satellite

Ground track
Ground track

The orbit data is extracted from the following two-line orbital elements,

1 22286U 92094A   22221.74029511  .00000748  00000-0  76952-4 0  9994
2 22286  82.5185  40.4595 0020832   2.7971 357.3359 14.88824956580956
Epoch (UTC): 09 August 2022 17:46:01
Eccentricity: 0.0020832
inclination: 82.5185°
perigee height: 587 km
apogee height: 616 km
right ascension of ascending node: 40.4595°
argument of perigee: 2.7971°
revolutions per day: 14.88824956
mean anomaly at epoch: 357.3359°
orbit number at epoch: 58095

The dashed part of the orbit path shows where the satellite is in the earth's shadow,  

DLR